Hourly Weather Roundup
Issued by NWS Central Illinois

Home | Current Version | Previous Version | Text Only | Print | Product List | Glossary On
Versions: 1 2 3 4 5 6 7 8 9 10 11 12 13 14 15 16 17 18 19 20 21 22 23 24 25 26 27 28 29 30 31 32 33 34 35 36 37 38 39 40 41 42 43 44 45 46 47 48 49 50
000
NZUS43 KILX 021810
HWRILX

AREA WEATHER ROUNDUP
NATIONAL WEATHER SERVICE, LINCOLN IL
100 PM CDT SUN AUG 02 2015


CITY           SKY/WX    TMP DP  RH WIND       PRES   REMARKS
BLOOMINGTON    MOSUNNY   87  70  57 SW17      29.89F HX  92
6HR MIN TEMP:  69; 6HR MAX TEMP:  87;

CHAMPAIGN      MOSUNNY   86  70  58 SW13      29.91F HX  90
6HR MIN TEMP:  66; 6HR MAX TEMP:  88;

DANVILLE       SUNNY     86  73  65 SW15      29.87F HX  92
6HR MIN TEMP:  64; 6HR MAX TEMP:  86;

DECATUR        PTSUNNY   87  70  56 SW10      29.91F HX  92
6HR MIN TEMP:  68; 6HR MAX TEMP:  89;

EFFINGHAM      SUNNY     90  64  42 SW10      29.94F HX  91
FLORA          SUNNY     88  70  54 SW8       29.94F HX  93
6HR MIN TEMP:  65; 6HR MAX TEMP:  89;

GALESBURG      SUNNY     86  73  65 SW17G23   29.85S HX  94
JACKSONVILLE   MOSUNNY   91  74  58 SW8       29.88F HX 100
6HR MIN TEMP:  74; 6HR MAX TEMP:  91;

LACON          SUNNY     87  70  57 SW13      29.82F HX  91
6HR MIN TEMP:  71; 6HR MAX TEMP:  87;

LAWRENCEVILLE  SUNNY     88  69  53 S10       29.95F HX  92
6HR MIN TEMP:  67; 6HR MAX TEMP:  89;

LITCHFIELD     SUNNY     87  70  56 SW8       29.92F HX  92
$$


CITY           SKY/WX    TMP DP  RH WIND       PRES   REMARKS
LINCOLN        CLOUDY    81  71  72 S6        29.89F THUNDER HX  85
6HR MIN TEMP:  68; 6HR MAX TEMP:  89; 6HR PCP:  0.10;

MACOMB         SUNNY     87  72  61 SW13      29.88S HX  93
MATTOON        MOSUNNY   87  69  54 SW10      29.92F HX  91
6HR MIN TEMP:  70; 6HR MAX TEMP:  88;

MT CARMEL AP   SUNNY     88  68  51 SW8       29.95F HX  91
OLNEY-NOBLE AP SUNNY     86  72  62 S7        29.95F HX  92
PARIS          SUNNY     87  72  60 SW12G17   29.92F HX  94
6HR MIN TEMP:  66; 6HR MAX TEMP:  87;

PEORIA         MOSUNNY   90  70  51 SW15      29.85F HX  95
6HR MIN TEMP:  71; 6HR MAX TEMP:  91;

PONTIAC        SUNNY     87  73  63 SW15      29.86F HX  95
RANTOUL        NOT AVBL
ROBINSON       SUNNY     86  70  58 SW8       29.95F HX  91
6HR MIN TEMP:  65; 6HR MAX TEMP:  86;

SPRINGFIELD    MOSUNNY   88  73  61 SW9       29.89F HX  95
6HR MIN TEMP:  73; 6HR MAX TEMP:  89; 6HR PCP: TRACE;

TAYLORVILLE    MOSUNNY   88  72  58 S9        29.91F HX  94
$$

...REGIONAL REPORTS...


CITY           SKY/WX    TMP DP  RH WIND       PRES   REMARKS
CHICAGO O`HARE MOSUNNY   89  63  41 SW14G31   29.78F HX  90
KANKAKEE       SUNNY     89  71  56 SW18      29.85F HX  95
MOLINE         MOSUNNY   89  70  53 SW18G24   29.80F HX  94
MOUNT STERLING NOT AVBL
MOUNT VERNON   SUNNY     90  72  55 S12       29.95F HX  96
PITTSFIELD     MOSUNNY   89  69  52 SW15      29.90F HX  94
QUINCY         MOSUNNY   89  71  55 SW14      29.88F HX  95
ROCKFORD       MOSUNNY   88  68  51 SW15G26   29.78F HX  91
$$


CITY           SKY/WX    TMP DP  RH WIND       PRES   REMARKS
BURLINGTON     NOT AVBL
CEDAR RAPIDS   SUNNY     85  75  72 SW13      29.77F HX  93
DES MOINES     MOSUNNY   91  72  53 W21G29    29.79F HX  98
KIRKSVILLE     SUNNY     88  73  61 W9G17     29.89F HX  95
OTTUMWA        MOSUNNY   85  76  74 SW12      29.81F HX  94
ST LOUIS       MOSUNNY   93  69  45 W13G25    29.92F HX  98
$$


CITY           SKY/WX    TMP DP  RH WIND       PRES   REMARKS
TERRE HAUTE    SUNNY     88  69  53 SW12G20   29.93F HX  92
EVANSVILLE     SUNNY     88  60  38 S8        29.97F HX  87
INDIANAPOLIS   MOSUNNY   85  66  53 SW13      29.94F HX  87
LAFAYETTE      SUNNY     86  72  62 SW12G17   29.88F HX  92
MADISON        MOSUNNY   86  69  56 SW13G20   29.68F HX  90
MILWAUKEE      MOSUNNY   90  66  45 SW22G31   29.70F HX  92
$$





USA.gov is the U.S. government's official web portal to all federal, state and local government web resources and services.